CAPE
0 0 0 0 0 2 70 217 215 74 125 377 750 1020 1048 967 763 736 749 509 489 315 124 61 0 0 0 0 0 0 0 0 0 0 1 1 4 4 1 0 0 0 0
0 0 0 0 0 13 85 179 79 58 364 457 824 1040 1015 874 652 728 560 487 423 189 21 0 0 0 0 0 0 0 0 0 0 0 1 1 2 0 0 0 0 0 0
0 0 0 0 0 54 161 132 89 214 370 640 811 1063 959 642 604 628 538 323 81 0 0 0 0 0 0 0 0 0 0 0 0 0 0 2 1 1 0 1 0 0 0
0 0 0 0 30 145 136 117 267 374 485 674 959 963 757 583 628 479 127 0 0 4 4 0 0 0 0 0 0 0 0 0 0 0 0 2 0 2 0 1 0 1 0
0 0 0 51 269 312 343 411 424 530 725 829 894 827 560 612 484 98 0 0 7 4 0 0 0 0 0 0 0 0 1 4 3 3 4 0 3 2 0 0 0 0 0
194 23 141 383 472 523 647 660 771 837 761 727 896 680 619 614 197 2 0 0 1 0 0 0 0 0 0 0 0 1 7 17 20 14 0 1 3 2 1 0 0 2 1
1072 778 594 756 836 1002 877 794 789 806 797 804 605 664 623 228 0 0 0 0 1 5 5 0 0 0 0 0 0 2 20 6 0 0 3 2 1 0 0 0 0 0 0
1332 1162 1033 1012 826 940 1173 1160 1122 948 812 667 680 424 63 0 0 0 0 4 5 4 0 0 0 0 0 0 3 2 9 4 0 0 0 0 0 0 1 0 0 0 0
1299 1267 1298 1250 1262 1260 1154 1028 751 692 593 568 185 4 0 0 0 0 3 3 0 0 0 0 0 0 7 7 8 5 0 4 0 0 0 0 0 0 0 0 0 0 0
1083 1179 1131 1047 1113 985 832 656 493 475 308 9 0 0 0 0 0 1 3 2 0 0 0 0 0 3 7 8 9 0 4 7 0 0 0 0 0 0 0 0 0 0 0
684 815 662 520 530 392 334 462 312 69 1 0 0 0 0 0 0 0 2 4 0 0 0 0 0 0 0 0 0 0 0 0 1 0 0 0 0 0 1 0 1 1 0
29 243 487 263 166 87 124 32 6 0 0 0 0 0 0 0 0 0 0 0 0 0 0 0 0 0 0 0 0 0 0 2 2 0 0 0 0 1 1 0 0 0 0
5 180 246 120 4 1 0 0 0 0 0 0 0 0 0 0 0 0 0 0 0 0 0 0 0 0 0 0 0 0 1 0 0 0 0 0 0 1 0 0 0 0 0
0 0 70 25 21 2 6 0 0 0 0 0 0 0 0 0 0 0 0 0 0 0 0 0 0 0 0 0 0 2 1 0 1 0 0 0 1 1 0 0 1 0 0
20 5 8 31 18 0 0 0 0 0 0 0 0 0 0 0 0 0 0 0 0 0 0 0 0 0 0 1 2 1 0 1 1 1 0 0 1 1 0 0 0 0 1
109 30 56 56 3 0 0 0 0 0 0 0 0 0 0 0 0 0 0 0 0 0 0 0 0 0 0 1 1 1 0 0 0 1 1 1 0 0 0 1 0 0 1
126 74 43 11 0 0 0 0 0 0 0 0 0 0 1 0 0 0 0 0 0 1 0 0 1 0 0 1 0 0 0 0 0 0 0 1 0 0 0 1 0 0 0
88 9 21 12 0 0 0 0 0 0 0 0 0 0 0 0 0 0 0 0 0 1 1 1 0 0 1 0 0 0 0 0 0 0 0 0 0 0 1 0 1 0 0
57 14 10 6 0 0 0 0 0 0 0 0 0 0 0 0 0 0 0 0 0 0 0 1 1 1 2 3 1 0 0 0 0 0 0 0 0 0 0 0 0 0 0
4 0 1 0 0 0 0 0 0 0 0 0 1 0 0 0 0 0 1 1 0 0 1 1 0 0 4 4 2 1 0 0 0 0 0 0 0 0 0 0 0 0 0
0 0 0 0 0 0 0 0 0 0 0 0 0 0 1 0 5 2 0 0 0 0 0 0 1 6 2 1 1 1 1 0 0 0 0 0 0 0 0 0 0 0 0
0 0 2 15 5 0 0 0 1 0 0 0 0 0 0 4 3 4 4 7 6 3 2 0 0 0 0 0 0 0 3 4 1 0 0 0 0 0 0 0 0 0 0
12 16 16 10 1 0 0 1 0 0 0 0 0 0 0 0 3 2 0 0 0 0 0 0 0 0 0 0 0 0 0 1 0 0 0 1 1 3 0 0 0 0 0
37 34 6 0 0 0 0 0 1 0 0 0 2 1 1 0 0 0 1 2 1 1 0 0 0 0 0 0 0 0 0 0 0 0 0 0 3 5 7 9 1 0 0
36 34 4 0 0 0 0 0 0 0 0 1 2 0 0 0 1 3 3 4 4 0 0 0 0 0 0 0 0 0 0 0 0 0 0 1 0 0 2 3 1 0 0
27 25 2 0 0 0 0 0 0 0 2 2 0 0 0 1 3 5 5 3 1 0 0 0 0 0 0 0 0 0 0 0 0 0 0 0 0 0 0 0 0 0 0
CIN
0 0 0 0 0 -263 -546 -441 -319 -311 -289 -327 -273 -212 -171 -119 -109 -118 -81 -154 -136 -126 -146 -131 0 0 0 0 0 0 0 0 0 0 0 0 0 -1 0 0 0 0 0
0 0 0 0 0 -608 -491 -373 -345 -299 -340 -299 -241 -193 -138 -115 -121 -69 -90 -122 -106 -113 -188 0 0 0 0 0 0 0 0 0 0 0 0 0 0 0 0 0 0 0 0
0 0 0 0 0 -504 -400 -371 -331 -356 -330 -282 -236 -143 -111 -124 -102 -67 -80 -121 -140 0 0 0 0 0 0 0 0 0 0 0 0 0 0 0 0 0 0 0 0 0 0
0 0 0 0 -462 -363 -356 -332 -363 -357 -302 -258 -177 -117 -101 -104 -72 -74 -152 0 0 -120 -178 0 0 0 0 0 0 0 0 0 0 0 0 0 0 -41 0 -77 0 0 0
0 0 0 -497 -411 -362 -356 -360 -338 -307 -268 -209 -130 -83 -91 -81 -83 -159 -9 0 -42 -80 0 0 0 0 0 0 0 0 -68 -85 -64 -74 -72 0 -15 -59 -60 0 0 0 0
-478 -566 -448 -425 -370 -340 -347 -321 -305 -274 -234 -152 -59 -87 -88 -75 -115 -76 0 0 -17 -17 0 0 0 0 0 0 0 -104 -88 -57 -60 -80 0 -28 -19 -62 0 0 0 0 0
-214 -322 -387 -372 -339 -320 -314 -304 -268 -229 -156 -82 -107 -80 -74 -106 0 -9 -7 0 -16 -54 -56 0 0 0 0 0 0 -99 -78 -78 -28 -6 -47 -67 -12 0 0 0 -2 0 0
-118 -168 -271 -269 -282 -278 -228 -201 -159 -130 -114 -118 -92 -119 -196 0 0 0 0 -61 -63 -70 -2 0 0 0 -97 -67 -109 -89 -52 -50 0 0 -10 -20 0 0 -18 0 0 0 0
-92 -131 -169 -189 -186 -179 -161 -132 -142 -141 -136 -115 -169 -142 0 0 0 0 -58 -71 0 0 0 0 0 0 -146 -126 -102 -63 -8 -47 0 0 0 0 0 0 0 0 0 0 0
-64 -62 -87 -117 -122 -131 -125 -136 -168 -158 -168 -273 0 0 0 0 0 -103 -81 -71 0 0 0 0 0 -100 -159 -128 -63 0 -61 -48 0 0 0 0 0 0 -1 0 0 0 0
-37 -38 -55 -108 -148 -187 -191 -132 -148 -225 -49 0 0 0 0 0 0 0 -72 -60 0 0 0 0 0 0 0 0 0 0 0 0 0 0 0 0 0 0 0 0 -14 -39 0
-254 -98 -73 -108 -195 -223 -224 -253 -94 0 0 0 0 0 0 0 0 0 0 0 0 0 0 0 0 0 0 0 0 0 0 0 0 0 0 0 0 0 -4 -25 0 0 0
-196 -74 -83 -142 -19 -22 0 -17 0 0 0 0 0 0 0 0 0 0 0 0 0 0 0 0 0 0 0 0 0 0 0 0 0 0 0 0 0 0 0 0 0 0 0
-11 0 -97 -79 -141 -117 -182 0 0 0 0 0 0 0 0 0 0 0 0 0 0 0 0 0 0 0 0 0 0 0 0 0 0 0 0 0 0 0 0 0 0 0 0
-286 -150 -25 -115 -137 0 0 0 0 0 0 0 0 0 0 0 0 0 0 0 0 0 0 0 0 0 0 0 0 0 0 0 0 -1 0 0 0 0 0 0 0 0 -15
-59 -74 -11 -83 -166 0 0 0 0 0 0 0 0 0 0 0 0 0 0 0 0 0 0 0 0 -4 0 0 0 0 0 0 0 0 0 0 0 0 0 0 0 0 0
-46 -66 -98 -162 0 0 0 0 0 0 0 0 0 0 -51 0 0 0 0 0 0 0 0 0 0 0 0 0 0 0 0 0 0 -3 0 0 0 0 0 0 0 0 0
-101 -148 -148 -129 0 0 0 0 0 0 -5 0 0 0 0 0 0 0 0 0 0 0 0 -45 -1 -3 -6 -9 0 0 0 0 0 -25 0 0 0 0 0 0 0 0 0
-109 -113 -160 -183 0 0 0 0 0 0 0 0 0 0 0 0 0 0 0 0 0 0 0 -4 0 0 -27 -46 -47 -18 -23 0 0 -12 -11 0 0 0 0 0 0 0 0
-146 -43 -41 -6 0 0 0 0 0 0 0 0 -58 0 0 0 0 0 0 -60 0 0 0 -20 0 -3 -20 -29 -35 -37 -31 0 0 0 0 -8 0 0 0 0 0 0 0
0 0 0 0 -1 0 0 0 0 0 0 0 0 0 0 0 -93 0 0 0 0 0 0 0 -20 -17 -15 -17 -13 -39 -39 -33 -23 0 0 0 0 0 0 0 0 0 0
0 0 -32 -99 -113 0 0 0 0 0 0 0 0 0 0 -92 -89 -55 -42 -52 -63 -88 -81 0 0 0 0 0 0 -7 -20 -25 -33 -10 0 0 0 0 0 0 0 0 0
-137 -114 -103 -111 -41 0 0 0 0 0 0 0 0 0 0 0 -68 -26 0 0 0 0 0 0 0 0 0 0 0 0 0 -15 0 0 0 -43 -48 -36 -48 0 0 0 -12
-111 -106 -105 0 0 0 0 0 0 0 0 0 0 0 0 0 0 0 0 0 0 0 0 0 0 0 0 0 0 0 0 0 0 0 0 0 -19 -41 -38 -55 -75 -75 0
-124 -123 -129 0 0 0 0 0 0 0 0 0 0 0 0 0 0 0 0 0 0 0 0 0 0 0 0 0 0 0 0 0 0 0 0 0 0 0 -54 -44 -13 0 0
-139 -128 -85 0 0 0 0 0 0 0 0 0 0 0 0 0 0 0 0 0 0 0 0 0 0 0 0 0 0 0 0 0 0 0 0 0 0 0 0 0 0 0 0
Wind_Speed
53 48 41 37 33 32 31 28 25 23 22 18 17 15 14 13 11 9 7 5 4 6 9 9 8 9 8 8 9 10 10 11 12 13 15 14 12 10 11 13 11 10 11
52 46 40 34 30 29 29 27 24 23 21 18 16 14 12 10 8 6 5 4 4 6 8 7 6 8 8 8 8 9 10 9 12 12 12 12 12 10 9 9 9 9 11
48 41 36 31 27 24 26 25 23 19 19 18 16 12 9 8 6 5 4 3 6 7 5 5 6 7 7 8 8 10 11 11 11 12 11 12 12 8 9 9 10 9 11
44 40 34 30 27 24 23 21 19 19 18 16 14 11 9 6 5 4 2 5 5 5 4 5 7 6 7 6 9 10 12 12 12 11 9 10 12 10 9 7 9 12 12
40 38 34 29 25 23 22 19 18 17 16 15 11 10 8 6 5 2 3 4 3 3 4 6 9 8 7 7 9 11 12 13 13 9 8 11 10 6 6 6 11 10 11
32 37 33 28 23 22 21 19 18 16 15 12 11 10 8 5 4 2 2 3 2 2 4 8 9 8 8 8 9 13 14 15 13 9 11 9 9 10 8 6 6 10 12
23 26 28 27 24 20 18 18 17 15 11 11 11 10 8 5 4 2 1 2 3 3 5 7 9 8 8 9 12 15 14 11 9 12 14 10 9 9 9 9 9 12 13
22 23 22 22 20 18 18 17 16 12 13 12 11 9 6 3 4 3 2 3 4 5 5 7 8 7 8 9 10 8 7 10 14 23 23 13 13 3 5 9 7 7 8
21 23 22 20 19 17 18 16 14 13 12 11 9 7 5 3 2 1 2 4 4 5 7 8 8 8 9 8 7 9 11 10 13 16 18 18 9 2 4 5 7 6 11
22 22 21 19 17 19 18 16 15 14 12 9 7 4 3 3 3 2 1 4 4 5 8 9 10 10 9 8 9 12 16 17 14 15 13 11 5 2 3 5 4 7 12
18 20 21 22 21 19 18 15 16 13 10 7 5 5 5 4 0 1 2 3 4 5 7 7 10 10 9 10 12 15 19 16 7 6 8 6 5 1 9 14 13 10 9
20 21 20 22 23 21 17 15 14 12 9 6 5 4 5 4 3 3 4 5 5 6 5 8 10 10 11 10 8 12 15 13 9 6 5 5 5 5 11 14 15 16 19
19 17 20 23 23 19 17 15 12 10 8 6 5 3 3 5 5 5 6 6 6 8 6 8 9 8 9 7 8 9 9 10 11 9 6 8 10 11 13 13 12 12 14
17 16 21 23 21 20 18 14 11 9 7 6 4 2 2 3 4 4 6 5 6 7 6 8 8 7 6 6 7 6 7 9 10 10 8 8 10 12 15 15 13 11 13
24 25 28 30 24 19 16 16 10 10 5 4 2 1 2 1 1 1 2 3 6 5 5 7 8 6 4 5 5 6 7 9 11 9 9 9 7 12 14 13 13 11 13
19 20 36 31 25 19 15 11 8 6 2 1 4 5 3 4 5 4 2 2 2 3 5 5 6 7 6 4 6 7 9 8 10 10 10 8 8 7 7 9 9 10 11
31 34 30 26 22 17 13 8 6 5 2 2 4 6 9 11 11 10 4 2 2 4 6 4 6 7 7 7 6 6 7 7 7 8 10 10 7 5 9 6 11 13 13
32 28 26 22 17 14 11 6 4 4 3 1 5 3 5 11 13 12 6 3 5 9 5 3 6 9 10 10 9 4 5 6 7 7 7 8 9 10 8 9 15 14 12
26 25 21 17 14 8 6 4 3 3 2 2 2 4 5 7 7 7 3 6 5 6 8 3 6 11 13 13 12 6 5 6 7 7 7 6 5 5 5 6 8 7 9
22 17 17 14 8 5 4 6 4 1 3 3 4 4 7 7 6 5 8 6 6 10 7 4 5 12 15 15 14 10 6 6 7 8 8 8 6 5 7 8 10 12 11
18 15 11 9 5 4 9 7 3 4 5 4 4 6 8 10 8 7 6 6 7 8 6 6 3 5 9 10 8 6 5 6 7 8 8 9 7 6 6 8 10 10 11
16 14 14 5 4 8 10 4 3 4 5 6 6 5 8 8 8 7 5 8 12 13 11 5 4 4 4 4 7 4 5 6 8 11 12 11 9 6 6 6 6 6 3
15 12 7 4 3 11 9 6 5 4 5 8 10 10 11 11 8 4 5 6 6 6 6 5 5 5 6 7 8 9 7 10 13 12 11 10 9 7 6 5 5 3 3
17 7 5 5 5 8 12 10 6 7 9 10 12 11 11 11 9 7 6 6 7 7 7 7 7 7 8 6 9 10 12 14 15 15 15 13 11 9 9 8 8 7 10
13 7 5 7 7 7 12 13 10 9 9 12 12 12 12 11 11 9 8 6 7 9 9 8 8 9 9 8 9 9 9 10 10 11 13 12 12 13 13 13 14 15 16
11 7 6 4 6 8 11 12 11 11 11 10 12 11 9 8 6 7 9 8 9 9 11 10 11 12 11 11 12 13 12 13 13 13 13 14 14 13 14 14 15 16 17
Wind_Direction
258 256 259 260 254 253 254 251 247 255 263 270 274 279 285 287 282 283 276 293 313 323 329 332 340 344 344 351 347 345 350 352 351 354 348 339 337 333 310 296 300 289 268
254 251 254 257 250 249 248 245 248 256 262 268 274 277 280 268 268 269 266 295 313 321 327 336 344 341 344 345 341 341 342 350 342 347 350 341 329 329 328 305 298 302 269
248 244 248 248 244 240 241 245 248 250 262 268 273 268 256 249 242 251 267 304 319 324 334 347 349 341 346 346 342 336 334 335 333 336 344 328 313 325 313 317 294 294 270
239 236 241 240 240 238 236 239 244 254 260 266 266 254 236 220 221 240 284 323 330 337 345 356 348 343 345 349 340 335 330 324 320 323 330 319 305 309 303 323 292 269 256
231 230 235 236 235 232 235 239 245 252 261 263 253 233 216 207 218 231 310 328 337 356 4 354 338 342 348 346 338 331 325 319 312 313 307 297 298 304 301 284 252 249 253
228 229 230 227 228 229 236 236 245 254 259 251 218 201 194 205 195 193 316 324 346 58 8 346 345 355 355 352 337 327 321 308 299 289 279 278 286 277 278 268 262 251 251
224 222 220 222 225 227 231 237 246 249 237 205 201 185 188 190 173 155 70 53 74 21 2 354 355 358 3 351 340 333 330 329 308 269 258 271 277 270 260 255 261 257 257
222 219 214 215 222 227 235 240 239 226 196 193 185 180 181 216 167 142 84 43 22 17 8 360 6 11 6 0 5 11 27 348 284 246 244 274 276 274 256 261 265 268 267
229 226 225 225 227 230 231 227 216 195 193 184 179 182 197 226 202 172 48 359 19 15 2 5 15 12 13 23 49 103 114 342 289 253 258 259 281 278 240 255 249 247 259
236 230 230 232 227 225 216 205 203 189 184 179 193 202 207 255 274 141 34 8 22 5 356 2 14 17 26 56 79 115 136 127 254 260 278 283 296 131 177 249 212 247 257
239 231 231 229 222 208 199 188 195 188 183 194 199 246 264 280 208 88 37 27 26 9 352 11 12 27 57 83 98 117 140 113 298 301 291 306 301 276 262 258 256 254 263
239 237 226 219 206 202 188 190 194 196 191 198 207 252 273 293 312 332 340 358 10 353 22 22 14 26 77 72 40 70 88 82 59 357 332 315 312 290 264 258 259 257 257
247 241 219 208 202 198 189 187 189 189 190 206 221 232 272 307 311 315 322 353 358 333 5 35 30 28 59 53 65 67 60 70 72 63 4 311 289 280 268 263 265 266 267
248 228 218 206 200 198 199 197 196 198 208 213 222 242 300 315 318 316 318 349 335 328 2 23 27 30 29 55 67 42 42 60 84 84 49 333 301 283 261 255 257 262 265
255 224 215 199 198 195 202 212 203 221 188 163 191 135 100 50 355 359 334 342 307 330 16 20 40 44 45 56 41 46 50 62 85 67 64 45 350 278 260 255 256 264 268
214 209 194 193 196 197 199 208 225 230 219 302 103 101 46 40 81 93 60 9 330 54 341 30 58 75 91 65 69 72 74 53 72 74 77 37 28 303 271 261 262 267 276
174 176 181 186 194 198 204 192 174 246 293 328 74 88 91 95 106 105 83 317 39 328 331 28 85 95 102 103 77 62 51 325 5 56 71 69 1 297 264 295 266 266 272
179 182 186 192 200 203 204 194 162 130 107 0 311 350 35 92 101 104 84 359 311 305 339 27 100 111 115 112 105 16 14 340 331 13 38 57 300 275 286 284 264 269 278
186 190 195 200 205 189 187 163 129 113 94 73 48 312 357 62 68 79 44 325 339 335 307 359 94 119 121 119 109 66 17 8 346 7 34 26 338 320 315 314 310 307 294
190 193 199 204 191 176 177 115 105 105 99 75 76 65 71 59 51 52 303 340 353 293 311 321 72 113 123 125 115 91 30 10 352 344 340 349 351 341 311 308 307 297 295
194 198 194 195 181 135 102 102 121 98 92 72 58 62 67 73 52 48 33 11 319 299 297 288 2 71 101 112 99 66 37 45 19 357 341 334 350 352 334 324 319 312 301
199 198 200 152 134 97 94 111 121 97 83 80 64 40 55 46 56 38 328 277 251 247 265 304 354 18 48 75 104 54 350 358 356 328 329 331 333 350 350 350 340 341 353
196 194 186 163 161 93 88 96 103 97 88 82 79 70 69 71 64 355 338 313 326 330 312 342 356 341 322 318 290 292 319 305 300 319 337 351 4 29 43 62 80 65 354
202 183 147 128 111 88 90 92 95 91 87 83 82 73 70 74 64 37 20 11 10 12 7 8 0 2 352 327 314 298 286 277 272 285 287 326 338 14 4 8 358 359 337
201 195 183 111 104 97 96 96 91 87 83 85 83 78 77 73 64 51 36 25 22 30 23 14 10 14 11 7 1 350 348 0 345 331 336 356 347 336 333 336 331 327 323
203 201 201 169 118 106 101 99 95 90 85 80 84 83 78 66 45 40 35 34 40 38 37 29 30 33 27 24 26 26 19 14 12 8 9 12 5 357 356 353 350 344 339